Location: S�deilles
(46.7500°N, 6.9329°E)
Time: 16:39:51
(UTC+00:00)

Cosmos 1378 Rocket - Pass Details

Date: 08 March 2021
Orbit: 601 x 628 km, 82.5° (Epoch: 20 April)

Event Time Altitude Azimuth Distance (km) Brightness Sun altitude
Rises 19:03:00 0° 359° (N) 2,928 7.2 -17.0°
Reaches altitude 10° 19:05:28 10° 9° (N) 2,016 6.2 -17.4°
Enters shadow 19:09:18 31° 68° (ENE) 1,099 4.4 -18.0°
